<?xml version="1.0"?>
<gpx xmlns="http://www.topografix.com/GPX/1/1" xmlns:xsi="http://www.w3.org/2001/XMLSchema-instance" version="1.1" creator="GPX RubyGem 1.0.0 -- http://dougfales.github.io/gpx/" xsi:schemaLocation="http://www.topografix.com/GPX/1/1 http://www.topografix.com/GPX/1/1/gpx.xsd">
  <metadata>
    <name/>
    <time>2026-05-10T22:56:58+00:00</time>
    <bound minlat="90.0" minlon="180.0" maxlat="-90.0" maxlon="-180.0"/>
  </metadata>
  <trk>
    <name/>
    <trkseg>
      <trkpt lat="50.654263" lon="6.25437">
        <time>1970-01-01T00:00:00+00:00</time>
        <ele>487.0</ele>
      </trkpt>
      <trkpt lat="50.654287" lon="6.254327">
        <time>1970-01-01T00:00:00+00:00</time>
        <ele>487.0</ele>
      </trkpt>
      <trkpt lat="50.654294" lon="6.254262">
        <time>1970-01-01T00:00:00+00:00</time>
        <ele>487.0</ele>
      </trkpt>
      <trkpt lat="50.653834" lon="6.251459">
        <time>1970-01-01T00:00:00+00:00</time>
        <ele>481.0</ele>
      </trkpt>
      <trkpt lat="50.653602" lon="6.251593">
        <time>1970-01-01T00:00:00+00:00</time>
        <ele>483.0</ele>
      </trkpt>
      <trkpt lat="50.652404" lon="6.252462">
        <time>1970-01-01T00:00:00+00:00</time>
        <ele>495.0</ele>
      </trkpt>
      <trkpt lat="50.651739" lon="6.252958">
        <time>1970-01-01T00:00:00+00:00</time>
        <ele>497.0</ele>
      </trkpt>
      <trkpt lat="50.650983" lon="6.25345">
        <time>1970-01-01T00:00:00+00:00</time>
        <ele>491.0</ele>
      </trkpt>
      <trkpt lat="50.649923" lon="6.254184">
        <time>1970-01-01T00:00:00+00:00</time>
        <ele>495.0</ele>
      </trkpt>
      <trkpt lat="50.648679" lon="6.251713">
        <time>1970-01-01T00:00:00+00:00</time>
        <ele>496.0</ele>
      </trkpt>
      <trkpt lat="50.648216" lon="6.250749">
        <time>1970-01-01T00:00:00+00:00</time>
        <ele>497.0</ele>
      </trkpt>
      <trkpt lat="50.648111" lon="6.250435">
        <time>1970-01-01T00:00:00+00:00</time>
        <ele>496.0</ele>
      </trkpt>
      <trkpt lat="50.647604" lon="6.248355">
        <time>1970-01-01T00:00:00+00:00</time>
        <ele>487.0</ele>
      </trkpt>
      <trkpt lat="50.645012" lon="6.249517">
        <time>1970-01-01T00:00:00+00:00</time>
        <ele>503.0</ele>
      </trkpt>
      <trkpt lat="50.644758" lon="6.249656">
        <time>1970-01-01T00:00:00+00:00</time>
        <ele>501.0</ele>
      </trkpt>
      <trkpt lat="50.644479" lon="6.249775">
        <time>1970-01-01T00:00:00+00:00</time>
        <ele>504.0</ele>
      </trkpt>
      <trkpt lat="50.643699" lon="6.25015">
        <time>1970-01-01T00:00:00+00:00</time>
        <ele>510.0</ele>
      </trkpt>
      <trkpt lat="50.643686" lon="6.250276">
        <time>1970-01-01T00:00:00+00:00</time>
        <ele>510.0</ele>
      </trkpt>
      <trkpt lat="50.643695" lon="6.250588">
        <time>1970-01-01T00:00:00+00:00</time>
        <ele>510.0</ele>
      </trkpt>
      <trkpt lat="50.643716" lon="6.250775">
        <time>1970-01-01T00:00:00+00:00</time>
        <ele>511.0</ele>
      </trkpt>
      <trkpt lat="50.64378" lon="6.251048">
        <time>1970-01-01T00:00:00+00:00</time>
        <ele>510.0</ele>
      </trkpt>
      <trkpt lat="50.643469" lon="6.251581">
        <time>1970-01-01T00:00:00+00:00</time>
        <ele>511.0</ele>
      </trkpt>
      <trkpt lat="50.643332" lon="6.252155">
        <time>1970-01-01T00:00:00+00:00</time>
        <ele>513.0</ele>
      </trkpt>
      <trkpt lat="50.643191" lon="6.252454">
        <time>1970-01-01T00:00:00+00:00</time>
        <ele>514.0</ele>
      </trkpt>
      <trkpt lat="50.64318" lon="6.252597">
        <time>1970-01-01T00:00:00+00:00</time>
        <ele>514.0</ele>
      </trkpt>
      <trkpt lat="50.643181" lon="6.253059">
        <time>1970-01-01T00:00:00+00:00</time>
        <ele>515.0</ele>
      </trkpt>
      <trkpt lat="50.643163" lon="6.253126">
        <time>1970-01-01T00:00:00+00:00</time>
        <ele>516.0</ele>
      </trkpt>
      <trkpt lat="50.643099" lon="6.253192">
        <time>1970-01-01T00:00:00+00:00</time>
        <ele>516.0</ele>
      </trkpt>
      <trkpt lat="50.643099" lon="6.253192">
        <time>1970-01-01T00:00:00+00:00</time>
        <ele>516.0</ele>
      </trkpt>
      <trkpt lat="50.643163" lon="6.253126">
        <time>1970-01-01T00:00:00+00:00</time>
        <ele>516.0</ele>
      </trkpt>
      <trkpt lat="50.643181" lon="6.253059">
        <time>1970-01-01T00:00:00+00:00</time>
        <ele>515.0</ele>
      </trkpt>
      <trkpt lat="50.64318" lon="6.252597">
        <time>1970-01-01T00:00:00+00:00</time>
        <ele>514.0</ele>
      </trkpt>
      <trkpt lat="50.643191" lon="6.252454">
        <time>1970-01-01T00:00:00+00:00</time>
        <ele>514.0</ele>
      </trkpt>
      <trkpt lat="50.643332" lon="6.252155">
        <time>1970-01-01T00:00:00+00:00</time>
        <ele>513.0</ele>
      </trkpt>
      <trkpt lat="50.643469" lon="6.251581">
        <time>1970-01-01T00:00:00+00:00</time>
        <ele>511.0</ele>
      </trkpt>
      <trkpt lat="50.64378" lon="6.251048">
        <time>1970-01-01T00:00:00+00:00</time>
        <ele>510.0</ele>
      </trkpt>
      <trkpt lat="50.643847" lon="6.251255">
        <time>1970-01-01T00:00:00+00:00</time>
        <ele>509.0</ele>
      </trkpt>
      <trkpt lat="50.644992" lon="6.255161">
        <time>1970-01-01T00:00:00+00:00</time>
        <ele>517.0</ele>
      </trkpt>
      <trkpt lat="50.645042" lon="6.255382">
        <time>1970-01-01T00:00:00+00:00</time>
        <ele>522.0</ele>
      </trkpt>
      <trkpt lat="50.645071" lon="6.255745">
        <time>1970-01-01T00:00:00+00:00</time>
        <ele>526.0</ele>
      </trkpt>
      <trkpt lat="50.6451" lon="6.255854">
        <time>1970-01-01T00:00:00+00:00</time>
        <ele>527.0</ele>
      </trkpt>
      <trkpt lat="50.64586" lon="6.258294">
        <time>1970-01-01T00:00:00+00:00</time>
        <ele>529.0</ele>
      </trkpt>
      <trkpt lat="50.645897" lon="6.258362">
        <time>1970-01-01T00:00:00+00:00</time>
        <ele>529.0</ele>
      </trkpt>
      <trkpt lat="50.645932" lon="6.258378">
        <time>1970-01-01T00:00:00+00:00</time>
        <ele>528.0</ele>
      </trkpt>
      <trkpt lat="50.645983" lon="6.258358">
        <time>1970-01-01T00:00:00+00:00</time>
        <ele>528.0</ele>
      </trkpt>
      <trkpt lat="50.646757" lon="6.257844">
        <time>1970-01-01T00:00:00+00:00</time>
        <ele>523.0</ele>
      </trkpt>
      <trkpt lat="50.646855" lon="6.257823">
        <time>1970-01-01T00:00:00+00:00</time>
        <ele>522.0</ele>
      </trkpt>
      <trkpt lat="50.646924" lon="6.257854">
        <time>1970-01-01T00:00:00+00:00</time>
        <ele>521.0</ele>
      </trkpt>
      <trkpt lat="50.646965" lon="6.257895">
        <time>1970-01-01T00:00:00+00:00</time>
        <ele>521.0</ele>
      </trkpt>
      <trkpt lat="50.646995" lon="6.257968">
        <time>1970-01-01T00:00:00+00:00</time>
        <ele>521.0</ele>
      </trkpt>
      <trkpt lat="50.647108" lon="6.258369">
        <time>1970-01-01T00:00:00+00:00</time>
        <ele>524.0</ele>
      </trkpt>
      <trkpt lat="50.647297" lon="6.258884">
        <time>1970-01-01T00:00:00+00:00</time>
        <ele>524.0</ele>
      </trkpt>
      <trkpt lat="50.647498" lon="6.25933">
        <time>1970-01-01T00:00:00+00:00</time>
        <ele>520.0</ele>
      </trkpt>
      <trkpt lat="50.64756" lon="6.259437">
        <time>1970-01-01T00:00:00+00:00</time>
        <ele>520.0</ele>
      </trkpt>
      <trkpt lat="50.647605" lon="6.25948">
        <time>1970-01-01T00:00:00+00:00</time>
        <ele>520.0</ele>
      </trkpt>
      <trkpt lat="50.647746" lon="6.259292">
        <time>1970-01-01T00:00:00+00:00</time>
        <ele>519.0</ele>
      </trkpt>
      <trkpt lat="50.647968" lon="6.259071">
        <time>1970-01-01T00:00:00+00:00</time>
        <ele>519.0</ele>
      </trkpt>
      <trkpt lat="50.648184" lon="6.25892">
        <time>1970-01-01T00:00:00+00:00</time>
        <ele>518.0</ele>
      </trkpt>
      <trkpt lat="50.648392" lon="6.258812">
        <time>1970-01-01T00:00:00+00:00</time>
        <ele>519.0</ele>
      </trkpt>
      <trkpt lat="50.648655" lon="6.258724">
        <time>1970-01-01T00:00:00+00:00</time>
        <ele>517.0</ele>
      </trkpt>
      <trkpt lat="50.650547" lon="6.258194">
        <time>1970-01-01T00:00:00+00:00</time>
        <ele>511.0</ele>
      </trkpt>
      <trkpt lat="50.650803" lon="6.258085">
        <time>1970-01-01T00:00:00+00:00</time>
        <ele>511.0</ele>
      </trkpt>
      <trkpt lat="50.651013" lon="6.257958">
        <time>1970-01-01T00:00:00+00:00</time>
        <ele>509.0</ele>
      </trkpt>
      <trkpt lat="50.649923" lon="6.254184">
        <time>1970-01-01T00:00:00+00:00</time>
        <ele>495.0</ele>
      </trkpt>
      <trkpt lat="50.650983" lon="6.25345">
        <time>1970-01-01T00:00:00+00:00</time>
        <ele>491.0</ele>
      </trkpt>
      <trkpt lat="50.651739" lon="6.252958">
        <time>1970-01-01T00:00:00+00:00</time>
        <ele>497.0</ele>
      </trkpt>
      <trkpt lat="50.652404" lon="6.252462">
        <time>1970-01-01T00:00:00+00:00</time>
        <ele>495.0</ele>
      </trkpt>
      <trkpt lat="50.653602" lon="6.251593">
        <time>1970-01-01T00:00:00+00:00</time>
        <ele>483.0</ele>
      </trkpt>
      <trkpt lat="50.653834" lon="6.251459">
        <time>1970-01-01T00:00:00+00:00</time>
        <ele>481.0</ele>
      </trkpt>
      <trkpt lat="50.654294" lon="6.254262">
        <time>1970-01-01T00:00:00+00:00</time>
        <ele>487.0</ele>
      </trkpt>
      <trkpt lat="50.654287" lon="6.254327">
        <time>1970-01-01T00:00:00+00:00</time>
        <ele>487.0</ele>
      </trkpt>
      <trkpt lat="50.654263" lon="6.25437">
        <time>1970-01-01T00:00:00+00:00</time>
        <ele>487.0</ele>
      </trkpt>
    </trkseg>
  </trk>
</gpx>
